Location: Colle Santa Colomba
(42.0333°N, 12.5667°E)
Time: 21:57:45
(UTC+00:00)

Cosmos 2100 Rocket - Pass Details

Date: 25 October 2021
Orbit: 955 x 1001 km, 82.9° (Epoch: 04 December)

Event Time Altitude Azimuth Distance (km) Brightness Sun altitude
Rises 18:42:53 0° 194° (SSW) 3,677 7.1 -28.4°
Reaches altitude 10° 18:45:24 10° 196° (SSW) 2,739 6.4 -28.9°
Maximum altitude 18:51:40 68° 279° (W) 1,070 4.3 -30.0°
Drops below altitude 10° 18:58:02 10° 3° (N) 2,779 6.5 -31.2°
Sets 19:00:36 0° 6° (N) 3,734 7.1 -31.7°
